Time,TemperatureF,DewpointF,PressureIn,WindDirection,WindDirectionDegrees,WindSpeedMPH,WindSpeedGustMPH,Humidity,HourlyPrecipIn,Conditions,Clouds,dailyrainin,SoftwareType,DateUTC
2013-11-13 00:00:00,44.5,28.0,30.61,North,5,0.0,9.0,52,0.00,,SKC,0.00,VWS V14.01,2013-11-13 06:00:00,
2013-11-13 00:01:00,44.3,27.8,30.61,North,5,0.0,10.0,52,0.00,,SKC,0.00,VWS V14.01,2013-11-13 06:01:00,
2013-11-13 00:06:00,44.2,27.7,30.61,North,5,0.0,6.0,52,0.00,,SKC,0.00,VWS V14.01,2013-11-13 06:06:00,
2013-11-13 00:10:00,44.2,28.2,30.61,North,5,3.0,10.0,53,0.00,,SKC,0.00,VWS V14.01,2013-11-13 06:10:00,
2013-11-13 00:11:00,44.1,28.1,30.61,North,5,0.0,8.0,53,0.00,,SKC,0.00,VWS V14.01,2013-11-13 06:11:00,
2013-11-13 00:16:00,44.0,28.0,30.61,North,5,6.0,7.0,53,0.00,,SKC,0.00,VWS V14.01,2013-11-13 06:16:00,
2013-11-13 00:20:00,44.0,28.0,30.61,North,5,6.0,8.0,53,0.00,,SKC,0.00,VWS V14.01,2013-11-13 06:20:00,
2013-11-13 00:21:00,43.8,27.8,30.61,North,5,0.0,7.0,53,0.00,,SKC,0.00,VWS V14.01,2013-11-13 06:21:00,
2013-11-13 00:26:00,43.8,27.8,30.61,North,5,4.0,7.0,53,0.00,,SKC,0.00,VWS V14.01,2013-11-13 06:26:00,
2013-11-13 00:30:00,43.8,27.8,30.61,North,5,0.0,8.0,53,0.00,,SKC,0.00,VWS V14.01,2013-11-13 06:30:00,
2013-11-13 00:31:00,43.6,27.6,30.61,North,5,2.0,8.0,53,0.00,,SKC,0.00,VWS V14.01,2013-11-13 06:31:00,
2013-11-13 00:36:00,43.4,27.4,30.61,North,5,6.0,10.0,53,0.00,,SKC,0.00,VWS V14.01,2013-11-13 06:36:00,
2013-11-13 00:40:00,43.5,27.5,30.61,North,5,0.0,8.0,53,0.00,,SKC,0.00,VWS V14.01,2013-11-13 06:40:00,
2013-11-13 00:41:00,43.3,27.3,30.60,North,5,3.0,10.0,53,0.00,,SKC,0.00,VWS V14.01,2013-11-13 06:41:00,
2013-11-13 00:46:00,43.1,27.6,30.60,North,360,2.0,8.0,54,0.00,,SKC,0.00,VWS V14.01,2013-11-13 06:46:00,
2013-11-13 00:50:00,43.2,27.7,30.60,North,360,1.0,10.0,54,0.00,,SKC,0.00,VWS V14.01,2013-11-13 06:50:00,
2013-11-13 00:51:00,42.9,27.4,30.60,North,360,7.0,9.0,54,0.00,,SKC,0.00,VWS V14.01,2013-11-13 06:51:00,
2013-11-13 00:56:00,42.8,27.3,30.60,North,360,0.0,8.0,54,0.00,,SKC,0.00,VWS V14.01,2013-11-13 06:56:00,
2013-11-13 01:00:00,42.8,27.3,30.60,North,360,0.0,9.0,54,0.00,,SKC,0.00,VWS V14.01,2013-11-13 07:00:00,
2013-11-13 01:01:00,42.6,27.1,30.60,North,355,2.0,11.0,54,0.00,,SKC,0.00,VWS V14.01,2013-11-13 07:01:00,
2013-11-13 01:06:00,42.5,27.0,30.60,North,360,2.0,8.0,54,0.00,,SKC,0.00,VWS V14.01,2013-11-13 07:06:00,
2013-11-13 01:10:00,42.5,27.0,30.60,North,360,8.0,11.0,54,0.00,,SKC,0.00,VWS V14.01,2013-11-13 07:10:00,
2013-11-13 01:11:00,42.3,26.9,30.60,North,360,2.0,8.0,54,0.00,,SKC,0.00,VWS V14.01,2013-11-13 07:11:00,
2013-11-13 01:16:00,42.2,27.2,30.60,North,360,0.0,8.0,55,0.00,,SKC,0.00,VWS V14.01,2013-11-13 07:16:00,
2013-11-13 01:20:00,42.2,26.8,30.60,North,360,0.0,8.0,54,0.00,,SKC,0.00,VWS V14.01,2013-11-13 07:20:00,
2013-11-13 01:21:00,42.0,27.0,30.60,North,360,5.0,11.0,55,0.00,,SKC,0.00,VWS V14.01,2013-11-13 07:21:00,
2013-11-13 01:26:00,41.9,26.9,30.60,North,355,4.0,6.0,55,0.00,,SKC,0.00,VWS V14.01,2013-11-13 07:26:00,
2013-11-13 01:30:00,41.9,26.9,30.60,North,355,5.0,11.0,55,0.00,,SKC,0.00,VWS V14.01,2013-11-13 07:30:00,
2013-11-13 01:31:00,41.8,26.8,30.60,North,360,2.0,10.0,55,0.00,,SKC,0.00,VWS V14.01,2013-11-13 07:31:00,
2013-11-13 01:36:00,41.7,26.7,30.60,North,360,6.0,7.0,55,0.00,,SKC,0.00,VWS V14.01,2013-11-13 07:36:00,
2013-11-13 01:40:00,41.7,26.7,30.60,North,350,5.0,10.0,55,0.00,,SKC,0.00,VWS V14.01,2013-11-13 07:40:00,
2013-11-13 01:41:00,41.6,26.6,30.60,North,355,7.0,12.0,55,0.00,,SKC,0.00,VWS V14.01,2013-11-13 07:41:00,
2013-11-13 01:46:00,41.5,26.5,30.60,North,5,3.0,10.0,55,0.00,,SKC,0.00,VWS V14.01,2013-11-13 07:46:00,
2013-11-13 01:50:00,41.5,26.5,30.60,NNE,17,1.0,12.0,55,0.00,,SKC,0.00,VWS V14.01,2013-11-13 07:50:00,
2013-11-13 01:51:00,41.4,26.5,30.60,North,5,5.0,10.0,55,0.00,,SKC,0.00,VWS V14.01,2013-11-13 07:51:00,
2013-11-13 01:56:00,41.3,26.4,30.60,North,5,3.0,7.0,55,0.00,,SKC,0.00,VWS V14.01,2013-11-13 07:56:00,
2013-11-13 02:00:00,41.3,26.4,30.60,North,5,2.0,13.0,55,0.00,,SKC,0.00,VWS V14.01,2013-11-13 08:00:00,
2013-11-13 02:01:00,41.2,26.3,30.60,North,360,5.0,9.0,55,0.00,,SKC,0.00,VWS V14.01,2013-11-13 08:01:00,
2013-11-13 02:06:00,41.1,25.7,30.60,NNW,344,3.0,10.0,54,0.00,,SKC,0.00,VWS V14.01,2013-11-13 08:06:00,
2013-11-13 02:10:00,41.1,25.7,30.60,NNW,348,4.0,11.0,54,0.00,,SKC,0.00,VWS V14.01,2013-11-13 08:10:00,
2013-11-13 02:11:00,41.0,26.1,30.60,NNW,344,5.0,10.0,55,0.00,,SKC,0.00,VWS V14.01,2013-11-13 08:11:00,
2013-11-13 02:16:00,40.9,26.0,30.60,NNW,340,6.0,9.0,55,0.00,,SKC,0.00,VWS V14.01,2013-11-13 08:16:00,
2013-11-13 02:20:00,40.9,26.0,30.60,NNW,344,1.0,10.0,55,0.00,,SKC,0.00,VWS V14.01,2013-11-13 08:20:00,
2013-11-13 02:21:00,40.8,25.9,30.60,NNW,340,0.0,9.0,55,0.00,,SKC,0.00,VWS V14.01,2013-11-13 08:21:00,
2013-11-13 02:26:00,40.7,25.8,30.60,NNW,341,7.0,7.0,55,0.00,,SKC,0.00,VWS V14.01,2013-11-13 08:26:00,
2013-11-13 02:30:00,40.7,25.8,30.60,NNW,340,3.0,10.0,55,0.00,,SKC,0.00,VWS V14.01,2013-11-13 08:30:00,
2013-11-13 02:31:00,40.6,25.7,30.60,NNW,346,9.0,10.0,55,0.00,,SKC,0.00,VWS V14.01,2013-11-13 08:31:00,
2013-11-13 02:36:00,40.5,25.6,30.60,NNW,348,6.0,7.0,55,0.00,,SKC,0.00,VWS V14.01,2013-11-13 08:36:00,
2013-11-13 02:40:00,40.5,25.6,30.60,NNW,348,1.0,10.0,55,0.00,,SKC,0.00,VWS V14.01,2013-11-13 08:40:00,
2013-11-13 02:41:00,40.4,26.0,30.60,NNW,348,4.0,8.0,56,0.00,,SKC,0.00,VWS V14.01,2013-11-13 08:41:00,
2013-11-13 02:46:00,40.3,25.9,30.60,North,349,1.0,3.0,56,0.00,,SKC,0.00,VWS V14.01,2013-11-13 08:46:00,
2013-11-13 02:50:00,40.3,25.9,30.60,North,349,1.0,8.0,56,0.00,,SKC,0.00,VWS V14.01,2013-11-13 08:50:00,
2013-11-13 02:51:00,40.2,25.8,30.60,North,355,0.0,11.0,56,0.00,,SKC,0.00,VWS V14.01,2013-11-13 08:51:00,
2013-11-13 02:56:00,40.2,25.8,30.60,North,355,0.0,9.0,56,0.00,,SKC,0.00,VWS V14.01,2013-11-13 08:56:00,
2013-11-13 03:00:00,40.2,25.8,30.60,North,355,6.0,11.0,56,0.00,,SKC,0.00,VWS V14.01,2013-11-13 09:00:00,
2013-11-13 03:01:00,40.2,25.8,30.60,North,360,6.0,12.0,56,0.00,,SKC,0.00,VWS V14.01,2013-11-13 09:01:00,
2013-11-13 03:06:00,40.2,25.8,30.60,North,360,0.0,4.0,56,0.00,,SKC,0.00,VWS V14.01,2013-11-13 09:06:00,
2013-11-13 03:10:00,40.2,25.8,30.60,North,360,0.0,12.0,56,0.00,,SKC,0.00,VWS V14.01,2013-11-13 09:10:00,
2013-11-13 03:11:00,40.2,25.8,30.60,North,360,0.0,9.0,56,0.00,,SKC,0.00,VWS V14.01,2013-11-13 09:11:00,
2013-11-13 03:16:00,40.1,26.1,30.60,North,355,0.0,5.0,57,0.00,,SKC,0.00,VWS V14.01,2013-11-13 09:16:00,
2013-11-13 03:20:00,40.1,25.7,30.60,North,355,5.0,14.0,56,0.00,,SKC,0.00,VWS V14.01,2013-11-13 09:20:00,
2013-11-13 03:21:00,40.1,26.1,30.60,North,360,5.0,11.0,57,0.00,,SKC,0.00,VWS V14.01,2013-11-13 09:21:00,
2013-11-13 03:34:00,39.8,25.8,30.60,North,355,8.0,8.0,57,0.00,,SKC,0.00,VWS V14.01,2013-11-13 09:34:00,
2013-11-13 03:39:00,39.7,26.1,30.60,North,355,8.0,9.0,58,0.00,,SKC,0.00,VWS V14.01,2013-11-13 09:39:00,
2013-11-13 03:40:00,39.8,25.8,30.60,North,360,2.0,9.0,57,0.00,,SKC,0.00,VWS V14.01,2013-11-13 09:40:00,
2013-11-13 03:44:00,39.6,26.1,30.61,North,360,3.0,10.0,58,0.00,,SKC,0.00,VWS V14.01,2013-11-13 09:44:00,
2013-11-13 03:49:00,39.5,26.4,30.60,North,355,0.0,8.0,59,0.00,,SKC,0.00,VWS V14.01,2013-11-13 09:49:00,
2013-11-13 03:50:00,39.6,26.1,30.61,North,360,7.0,10.0,58,0.00,,SKC,0.00,VWS V14.01,2013-11-13 09:50:00,
2013-11-13 03:54:00,39.3,26.2,30.60,North,355,4.0,8.0,59,0.00,,SKC,0.00,VWS V14.01,2013-11-13 09:54:00,
2013-11-13 03:59:00,39.1,26.0,30.60,North,355,7.0,9.0,59,0.00,,SKC,0.00,VWS V14.01,2013-11-13 09:59:00,
2013-11-13 04:00:00,39.2,26.1,30.60,North,349,4.0,11.0,59,0.00,,SKC,0.00,VWS V14.01,2013-11-13 10:00:00,
2013-11-13 04:04:00,39.1,26.4,30.60,North,11,4.0,10.0,60,0.00,,SKC,0.00,VWS V14.01,2013-11-13 10:04:00,
2013-11-13 04:09:00,38.9,26.2,30.60,NNE,12,3.0,8.0,60,0.00,,SKC,0.00,VWS V14.01,2013-11-13 10:09:00,
2013-11-13 04:10:00,39.0,26.3,30.60,North,11,0.0,10.0,60,0.00,,SKC,0.00,VWS V14.01,2013-11-13 10:10:00,
2013-11-13 04:14:00,38.8,26.1,30.60,North,5,2.0,9.0,60,0.00,,SKC,0.00,VWS V14.01,2013-11-13 10:14:00,
2013-11-13 04:19:00,38.8,26.5,30.61,North,5,6.0,7.0,61,0.00,,SKC,0.00,VWS V14.01,2013-11-13 10:19:00,
2013-11-13 04:20:00,38.8,26.1,30.60,North,5,0.0,9.0,60,0.00,,SKC,0.00,VWS V14.01,2013-11-13 10:20:00,
2013-11-13 04:24:00,38.6,26.3,30.60,North,5,1.0,8.0,61,0.00,,SKC,0.00,VWS V14.01,2013-11-13 10:24:00,
2013-11-13 04:29:00,38.5,26.2,30.61,North,5,4.0,6.0,61,0.00,,SKC,0.00,VWS V14.01,2013-11-13 10:29:00,
2013-11-13 04:30:00,38.6,26.3,30.61,North,5,3.0,9.0,61,0.00,,SKC,0.00,VWS V14.01,2013-11-13 10:30:00,
2013-11-13 04:34:00,38.4,26.5,30.61,North,5,6.0,10.0,62,0.00,,SKC,0.00,VWS V14.01,2013-11-13 10:34:00,
2013-11-13 04:39:00,38.4,26.5,30.61,North,5,2.0,10.0,62,0.00,,SKC,0.00,VWS V14.01,2013-11-13 10:39:00,
2013-11-13 04:40:00,38.4,26.5,30.61,North,5,1.0,10.0,62,0.00,,SKC,0.00,VWS V14.01,2013-11-13 10:40:00,
2013-11-13 04:44:00,38.3,26.4,30.61,North,355,4.0,10.0,62,0.00,,SKC,0.00,VWS V14.01,2013-11-13 10:44:00,
2013-11-13 04:49:00,38.2,26.3,30.61,North,355,0.0,9.0,62,0.00,,SKC,0.00,VWS V14.01,2013-11-13 10:49:00,
2013-11-13 04:50:00,38.3,26.4,30.61,North,355,4.0,10.0,62,0.00,,SKC,0.00,VWS V14.01,2013-11-13 10:50:00,
2013-11-13 04:54:00,38.0,26.5,30.61,North,355,4.0,9.0,63,0.00,,SKC,0.00,VWS V14.01,2013-11-13 10:54:00,
2013-11-13 04:59:00,37.9,26.5,30.61,North,355,4.0,8.0,63,0.00,,SKC,0.00,VWS V14.01,2013-11-13 10:59:00,
2013-11-13 05:00:00,38.0,26.5,30.61,North,355,4.0,9.0,63,0.00,,SKC,0.00,VWS V14.01,2013-11-13 11:00:00,
2013-11-13 05:04:00,37.8,26.4,30.61,North,360,3.0,8.0,63,0.00,,SKC,0.00,VWS V14.01,2013-11-13 11:04:00,
2013-11-13 05:09:00,37.8,26.4,30.61,North,360,2.0,9.0,63,0.00,,SKC,0.00,VWS V14.01,2013-11-13 11:09:00,
2013-11-13 05:10:00,37.8,26.4,30.61,North,360,6.0,9.0,63,0.00,,SKC,0.00,VWS V14.01,2013-11-13 11:10:00,
2013-11-13 05:14:00,37.7,26.6,30.61,North,355,2.0,9.0,64,0.00,,SKC,0.00,VWS V14.01,2013-11-13 11:14:00,
2013-11-13 05:19:00,37.7,26.6,30.61,North,360,3.0,14.0,64,0.00,,SKC,0.00,VWS V14.01,2013-11-13 11:19:00,
2013-11-13 05:20:00,37.7,26.6,30.61,North,355,5.0,9.0,64,0.00,,SKC,0.00,VWS V14.01,2013-11-13 11:20:00,
2013-11-13 05:24:00,37.6,26.5,30.61,North,360,3.0,14.0,64,0.00,,SKC,0.00,VWS V14.01,2013-11-13 11:24:00,
2013-11-13 05:29:00,37.5,26.5,30.61,North,360,0.0,10.0,64,0.00,,SKC,0.00,VWS V14.01,2013-11-13 11:29:00,
2013-11-13 05:30:00,37.6,26.5,30.61,North,360,5.0,14.0,64,0.00,,SKC,0.00,VWS V14.01,2013-11-13 11:30:00,
2013-11-13 05:34:00,37.4,26.4,30.61,North,360,3.0,10.0,64,0.00,,SKC,0.00,VWS V14.01,2013-11-13 11:34:00,
2013-11-13 05:39:00,37.3,26.6,30.61,North,360,6.0,13.0,65,0.00,,SKC,0.00,VWS V14.01,2013-11-13 11:39:00,
2013-11-13 05:40:00,37.4,26.4,30.61,North,360,2.0,10.0,64,0.00,,SKC,0.00,VWS V14.01,2013-11-13 11:40:00,
2013-11-13 05:44:00,37.2,26.5,30.61,North,360,7.0,13.0,65,0.00,,SKC,0.00,VWS V14.01,2013-11-13 11:44:00,
2013-11-13 05:49:00,37.1,26.4,30.61,North,9,7.0,11.0,65,0.00,,SKC,0.00,VWS V14.01,2013-11-13 11:49:00,
2013-11-13 05:50:00,37.2,26.5,30.61,North,360,2.0,13.0,65,0.00,,SKC,0.00,VWS V14.01,2013-11-13 11:50:00,
2013-11-13 05:54:00,37.1,26.8,30.61,North,5,3.0,11.0,66,0.00,,SKC,0.00,VWS V14.01,2013-11-13 11:54:00,
2013-11-13 05:59:00,37.0,26.7,30.61,North,5,6.0,9.0,66,0.00,,SKC,0.00,VWS V14.01,2013-11-13 11:59:00,
2013-11-13 06:00:00,37.0,26.7,30.61,North,5,3.0,11.0,66,0.00,,SKC,0.00,VWS V14.01,2013-11-13 12:00:00,
2013-11-13 06:04:00,37.0,26.7,30.61,North,5,3.0,9.0,66,0.00,,SKC,0.00,VWS V14.01,2013-11-13 12:04:00,
2013-11-13 06:09:00,36.8,26.5,30.61,North,5,0.0,9.0,66,0.00,,SKC,0.00,VWS V14.01,2013-11-13 12:09:00,
2013-11-13 06:10:00,36.9,26.6,30.61,North,5,7.0,9.0,66,0.00,,SKC,0.00,VWS V14.01,2013-11-13 12:10:00,
2013-11-13 06:14:00,36.7,26.4,30.61,North,5,3.0,10.0,66,0.00,,SKC,0.00,VWS V14.01,2013-11-13 12:14:00,
2013-11-13 06:19:00,36.6,26.7,30.61,North,5,3.0,6.0,67,0.00,,SKC,0.00,VWS V14.01,2013-11-13 12:19:00,
2013-11-13 06:20:00,36.7,26.4,30.61,North,5,2.0,10.0,66,0.00,,SKC,0.00,VWS V14.01,2013-11-13 12:20:00,
2013-11-13 06:24:00,36.5,26.6,30.61,North,5,3.0,7.0,67,0.00,,SKC,0.00,VWS V14.01,2013-11-13 12:24:00,
2013-11-13 06:29:00,36.4,26.5,30.61,North,5,4.0,7.0,67,0.00,,SKC,0.00,VWS V14.01,2013-11-13 12:29:00,
2013-11-13 06:30:00,36.5,26.6,30.61,North,5,4.0,7.0,67,0.00,,SKC,0.00,VWS V14.01,2013-11-13 12:30:00,
2013-11-13 06:34:00,36.3,26.4,30.61,North,5,4.0,7.0,67,0.00,,SKC,0.00,VWS V14.01,2013-11-13 12:34:00,
2013-11-13 06:39:00,36.2,26.7,30.61,North,5,4.0,10.0,68,0.00,,SKC,0.00,VWS V14.01,2013-11-13 12:39:00,
2013-11-13 06:40:00,36.3,26.4,30.61,North,5,3.0,7.0,67,0.00,,SKC,0.00,VWS V14.01,2013-11-13 12:40:00,
2013-11-13 06:44:00,36.1,26.6,30.61,North,9,4.0,10.0,68,0.00,,SKC,0.00,VWS V14.01,2013-11-13 12:44:00,
2013-11-13 06:49:00,35.9,26.4,30.61,North,9,1.0,7.0,68,0.00,,SKC,0.00,VWS V14.01,2013-11-13 12:49:00,
2013-11-13 06:50:00,36.1,26.6,30.61,North,9,1.0,10.0,68,0.00,,SKC,0.00,VWS V14.01,2013-11-13 12:50:00,
2013-11-13 06:54:00,35.8,26.6,30.61,North,9,2.0,7.0,69,0.00,,SKC,0.00,VWS V14.01,2013-11-13 12:54:00,
2013-11-13 06:59:00,35.7,26.5,30.61,North,5,5.0,7.0,69,0.00,,SKC,0.00,VWS V14.01,2013-11-13 12:59:00,
2013-11-13 07:00:00,35.8,26.6,30.61,North,5,2.0,7.0,69,0.00,,SKC,0.00,VWS V14.01,2013-11-13 13:00:00,
2013-11-13 07:04:00,35.7,26.5,30.61,North,5,8.0,8.0,69,0.00,,SKC,0.00,VWS V14.01,2013-11-13 13:04:00,
2013-11-13 07:09:00,35.7,26.5,30.61,North,5,0.0,9.0,69,0.00,,SKC,0.00,VWS V14.01,2013-11-13 13:09:00,
2013-11-13 07:10:00,35.7,26.5,30.61,North,5,5.0,8.0,69,0.00,,SKC,0.00,VWS V14.01,2013-11-13 13:10:00,
2013-11-13 07:14:00,35.6,26.5,30.61,North,5,5.0,9.0,69,0.00,,SKC,0.00,VWS V14.01,2013-11-13 13:14:00,
2013-11-13 07:19:00,35.7,26.5,30.61,North,5,2.0,6.0,69,0.00,,SKC,0.00,VWS V14.01,2013-11-13 13:19:00,
2013-11-13 07:20:00,35.7,26.5,30.61,North,5,3.0,9.0,69,0.00,,SKC,0.00,VWS V14.01,2013-11-13 13:20:00,
2013-11-13 07:24:00,35.7,26.9,30.61,North,5,2.0,8.0,70,0.00,,SKC,0.00,VWS V14.01,2013-11-13 13:24:00,
2013-11-13 07:29:00,35.7,26.9,30.61,North,5,2.0,8.0,70,0.00,,SKC,0.00,VWS V14.01,2013-11-13 13:29:00,
2013-11-13 07:30:00,35.7,26.9,30.61,North,5,3.0,8.0,70,0.00,,SKC,0.00,VWS V14.01,2013-11-13 13:30:00,
2013-11-13 07:34:00,35.9,26.7,30.62,North,5,0.0,8.0,69,0.00,,SKC,0.00,VWS V14.01,2013-11-13 13:34:00,
2013-11-13 07:39:00,35.9,26.7,30.62,North,5,1.0,8.0,69,0.00,,SKC,0.00,VWS V14.01,2013-11-13 13:39:00,
2013-11-13 07:40:00,35.9,26.7,30.62,North,5,3.0,8.0,69,0.00,,SKC,0.00,VWS V14.01,2013-11-13 13:40:00,
2013-11-13 07:44:00,36.1,26.9,30.62,North,5,0.0,8.0,69,0.00,,SKC,0.00,VWS V14.01,2013-11-13 13:44:00,
2013-11-13 07:49:00,36.2,27.0,30.62,North,5,5.0,9.0,69,0.00,,SKC,0.00,VWS V14.01,2013-11-13 13:49:00,
2013-11-13 07:50:00,36.1,26.9,30.62,North,5,5.0,9.0,69,0.00,,SKC,0.00,VWS V14.01,2013-11-13 13:50:00,
2013-11-13 07:54:00,36.5,27.3,30.62,NNE,19,0.0,11.0,69,0.00,,SKC,0.00,VWS V14.01,2013-11-13 13:54:00,
2013-11-13 07:59:00,37.0,27.4,30.63,NNE,20,0.0,9.0,68,0.00,,SKC,0.00,VWS V14.01,2013-11-13 13:59:00,
2013-11-13 08:00:00,36.6,27.4,30.63,NNE,19,5.0,11.0,69,0.00,,SKC,0.00,VWS V14.01,2013-11-13 14:00:00,
2013-11-13 08:04:00,37.5,27.5,30.63,North,10,0.0,11.0,67,0.00,,SKC,0.00,VWS V14.01,2013-11-13 14:04:00,
2013-11-13 08:09:00,38.2,27.9,30.63,North,11,0.0,10.0,66,0.00,,SKC,0.00,VWS V14.01,2013-11-13 14:09:00,
2013-11-13 08:10:00,37.7,27.8,30.63,North,10,0.0,11.0,67,0.00,,SKC,0.00,VWS V14.01,2013-11-13 14:10:00,
2013-11-13 08:14:00,38.7,28.0,30.63,NNE,17,1.0,10.0,65,0.00,,SKC,0.00,VWS V14.01,2013-11-13 14:14:00,
2013-11-13 08:19:00,39.3,28.5,30.64,NNE,25,0.0,6.0,65,0.00,,SKC,0.00,VWS V14.01,2013-11-13 14:19:00,
2013-11-13 08:20:00,38.9,28.1,30.63,NNE,19,3.0,10.0,65,0.00,,SKC,0.00,VWS V14.01,2013-11-13 14:20:00,
2013-11-13 08:24:00,39.8,28.2,30.64,NE,43,1.0,8.0,63,0.00,,SKC,0.00,VWS V14.01,2013-11-13 14:24:00,
2013-11-13 08:29:00,40.2,28.2,30.64,NNE,14,4.0,8.0,62,0.00,,SKC,0.00,VWS V14.01,2013-11-13 14:29:00,
2013-11-13 08:30:00,39.9,28.3,30.64,NE,42,1.0,8.0,63,0.00,,SKC,0.00,VWS V14.01,2013-11-13 14:30:00,
2013-11-13 08:34:00,40.7,28.3,30.64,NNE,22,2.0,10.0,61,0.00,,SKC,0.00,VWS V14.01,2013-11-13 14:34:00,
2013-11-13 08:39:00,41.2,28.8,30.64,ENE,58,4.0,10.0,61,0.00,,SKC,0.00,VWS V14.01,2013-11-13 14:39:00,
2013-11-13 08:40:00,40.9,28.5,30.64,NNE,16,4.0,10.0,61,0.00,,SKC,0.00,VWS V14.01,2013-11-13 14:40:00,
2013-11-13 08:44:00,41.5,28.7,30.64,NE,34,4.0,11.0,60,0.00,,SKC,0.00,VWS V14.01,2013-11-13 14:44:00,
2013-11-13 08:49:00,41.9,28.6,30.64,NE,49,4.0,13.0,59,0.00,,SKC,0.00,VWS V14.01,2013-11-13 14:49:00,
2013-11-13 08:50:00,41.6,28.8,30.64,NNE,15,2.0,11.0,60,0.00,,SKC,0.00,VWS V14.01,2013-11-13 14:50:00,
2013-11-13 08:54:00,42.3,28.6,30.64,NE,36,4.0,13.0,58,0.00,,SKC,0.00,VWS V14.01,2013-11-13 14:54:00,
2013-11-13 08:59:00,42.6,28.9,30.64,NE,36,1.0,5.0,58,0.00,,SKC,0.00,VWS V14.01,2013-11-13 14:59:00,
2013-11-13 09:00:00,42.4,28.7,30.64,NE,38,0.0,13.0,58,0.00,,SKC,0.00,VWS V14.01,2013-11-13 15:00:00,
2013-11-13 09:04:00,43.1,28.9,30.64,NNE,26,0.0,8.0,57,0.00,,SKC,0.00,VWS V14.01,2013-11-13 15:04:00,
2013-11-13 09:08:00,43.7,29.0,30.64,NNE,30,1.0,7.0,56,0.00,,SKC,0.00,VWS V14.01,2013-11-13 15:08:00,
2013-11-13 09:10:00,43.3,29.1,30.64,NNE,27,6.0,8.0,57,0.00,,SKC,0.00,VWS V14.01,2013-11-13 15:10:00,
2013-11-13 09:13:00,44.1,28.5,30.64,NE,44,2.0,9.0,54,0.00,,SKC,0.00,VWS V14.01,2013-11-13 15:13:00,
2013-11-13 09:18:00,44.3,28.3,30.64,NE,38,1.0,8.0,53,0.00,,SKC,0.00,VWS V14.01,2013-11-13 15:18:00,
2013-11-13 09:20:00,44.1,28.5,30.64,NE,37,7.0,9.0,54,0.00,,SKC,0.00,VWS V14.01,2013-11-13 15:20:00,
2013-11-13 09:23:00,44.6,28.5,30.64,NNE,32,2.0,8.0,53,0.00,,SKC,0.00,VWS V14.01,2013-11-13 15:23:00,
2013-11-13 09:28:00,44.9,28.8,30.64,NNE,30,1.0,5.0,53,0.00,,SKC,0.00,VWS V14.01,2013-11-13 15:28:00,
2013-11-13 09:30:00,44.7,28.2,30.64,NNE,32,2.0,8.0,52,0.00,,SKC,0.00,VWS V14.01,2013-11-13 15:30:00,
2013-11-13 09:33:00,45.4,28.4,30.64,NE,38,8.0,8.0,51,0.00,,SKC,0.00,VWS V14.01,2013-11-13 15:33:00,
2013-11-13 09:38:00,45.8,28.7,30.64,NE,41,2.0,7.0,51,0.00,,SKC,0.00,VWS V14.01,2013-11-13 15:38:00,
2013-11-13 09:40:00,45.6,28.5,30.64,NE,36,3.0,8.0,51,0.00,,SKC,0.00,VWS V14.01,2013-11-13 15:40:00,
2013-11-13 09:43:00,46.3,29.2,30.64,NE,45,0.0,7.0,51,0.00,,SKC,0.00,VWS V14.01,2013-11-13 15:43:00,
2013-11-13 09:48:00,46.6,28.5,30.64,NE,45,0.0,7.0,49,0.00,,SKC,0.00,VWS V14.01,2013-11-13 15:48:00,
2013-11-13 09:50:00,46.4,28.8,30.64,NE,44,0.0,7.0,50,0.00,,SKC,0.00,VWS V14.01,2013-11-13 15:50:00,
2013-11-13 09:53:00,46.9,29.2,30.64,NNE,28,3.0,7.0,50,0.00,,SKC,0.00,VWS V14.01,2013-11-13 15:53:00,
2013-11-13 09:58:00,47.4,28.7,30.64,NE,40,1.0,9.0,48,0.00,,SKC,0.00,VWS V14.01,2013-11-13 15:58:00,
2013-11-13 10:00:00,47.1,28.9,30.64,NNE,33,2.0,7.0,49,0.00,,SKC,0.00,VWS V14.01,2013-11-13 16:00:00,
2013-11-13 10:03:00,47.8,28.6,30.63,NNE,29,3.0,9.0,47,0.00,,SKC,0.00,VWS V14.01,2013-11-13 16:03:00,
2013-11-13 10:08:00,47.9,28.7,30.63,NNE,22,1.0,10.0,47,0.00,,SKC,0.00,VWS V14.01,2013-11-13 16:08:00,
2013-11-13 10:10:00,47.8,28.0,30.64,NNE,21,1.0,9.0,46,0.00,,SKC,0.00,VWS V14.01,2013-11-13 16:10:00,
2013-11-13 10:13:00,47.9,28.7,30.63,NNE,21,2.0,10.0,47,0.00,,SKC,0.00,VWS V14.01,2013-11-13 16:13:00,
2013-11-13 10:18:00,48.3,29.0,30.63,NNE,32,1.0,7.0,47,0.00,,SKC,0.00,VWS V14.01,2013-11-13 16:18:00,
2013-11-13 10:20:00,48.0,28.8,30.63,NNE,24,0.0,10.0,47,0.00,,SKC,0.00,VWS V14.01,2013-11-13 16:20:00,
2013-11-13 10:23:00,48.9,28.5,30.63,NNE,26,2.0,7.0,45,0.00,,SKC,0.00,VWS V14.01,2013-11-13 16:23:00,
2013-11-13 10:28:00,49.2,28.2,30.63,NE,38,1.0,5.0,44,0.00,,SKC,0.00,VWS V14.01,2013-11-13 16:28:00,
2013-11-13 10:30:00,49.0,28.6,30.63,NE,37,1.0,7.0,45,0.00,,SKC,0.00,VWS V14.01,2013-11-13 16:30:00,
2013-11-13 10:33:00,49.6,28.6,30.63,NE,40,0.0,5.0,44,0.00,,SKC,0.00,VWS V14.01,2013-11-13 16:33:00,
2013-11-13 10:38:00,50.1,28.5,30.63,NNE,24,1.0,8.0,43,0.00,,SKC,0.00,VWS V14.01,2013-11-13 16:38:00,
2013-11-13 10:40:00,49.8,28.8,30.63,NE,40,0.0,8.0,44,0.00,,SKC,0.00,VWS V14.01,2013-11-13 16:40:00,
2013-11-13 10:43:00,50.5,28.3,30.63,NNE,24,0.0,8.0,42,0.00,,SKC,0.00,VWS V14.01,2013-11-13 16:43:00,
2013-11-13 10:48:00,50.7,27.3,30.62,NE,36,0.0,7.0,40,0.00,,SKC,0.00,VWS V14.01,2013-11-13 16:48:00,
2013-11-13 10:50:00,50.6,28.4,30.62,NNE,23,0.0,8.0,42,0.00,,SKC,0.00,VWS V14.01,2013-11-13 16:50:00,
2013-11-13 10:53:00,51.0,28.7,30.62,NE,34,0.0,7.0,42,0.00,,SKC,0.00,VWS V14.01,2013-11-13 16:53:00,
2013-11-13 10:58:00,51.2,28.3,30.62,NE,34,0.0,7.0,41,0.00,,SKC,0.00,VWS V14.01,2013-11-13 16:58:00,
2013-11-13 11:00:00,51.0,28.7,30.62,NE,34,0.0,7.0,42,0.00,,SKC,0.00,VWS V14.01,2013-11-13 17:00:00,
2013-11-13 11:03:00,51.5,29.2,30.62,NE,36,3.0,7.0,42,0.00,,SKC,0.00,VWS V14.01,2013-11-13 17:03:00,
2013-11-13 11:08:00,51.9,29.5,30.61,NNE,32,4.0,4.0,42,0.00,,SKC,0.00,VWS V14.01,2013-11-13 17:08:00,
2013-11-13 11:10:00,51.6,29.3,30.61,NE,35,0.0,7.0,42,0.00,,SKC,0.00,VWS V14.01,2013-11-13 17:10:00,
2013-11-13 11:13:00,52.3,29.3,30.61,NNE,23,0.0,6.0,41,0.00,,SKC,0.00,VWS V14.01,2013-11-13 17:13:00,
2013-11-13 11:18:00,52.4,28.8,30.61,NNE,30,4.0,7.0,40,0.00,,SKC,0.00,VWS V14.01,2013-11-13 17:18:00,
2013-11-13 11:20:00,52.3,29.3,30.61,NNE,26,0.0,6.0,41,0.00,,SKC,0.00,VWS V14.01,2013-11-13 17:20:00,
2013-11-13 11:23:00,52.5,28.9,30.60,North,9,5.0,7.0,40,0.00,,SKC,0.00,VWS V14.01,2013-11-13 17:23:00,
2013-11-13 11:28:00,52.7,29.7,30.60,North,351,0.0,7.0,41,0.00,,SKC,0.00,VWS V14.01,2013-11-13 17:28:00,
2013-11-13 11:30:00,52.6,29.0,30.60,North,5,0.0,7.0,40,0.00,,SKC,0.00,VWS V14.01,2013-11-13 17:30:00,
2013-11-13 11:33:00,53.1,29.4,30.60,North,355,0.0,7.0,40,0.00,,SKC,0.00,VWS V14.01,2013-11-13 17:33:00,
2013-11-13 11:38:00,53.3,29.6,30.60,North,10,0.0,7.0,40,0.00,,SKC,0.00,VWS V14.01,2013-11-13 17:38:00,
2013-11-13 11:40:00,53.2,29.5,30.60,NNE,12,2.0,7.0,40,0.00,,SKC,0.00,VWS V14.01,2013-11-13 17:40:00,
2013-11-13 11:43:00,53.5,31.0,30.59,NNE,22,0.0,7.0,42,0.00,,SKC,0.00,VWS V14.01,2013-11-13 17:43:00,
2013-11-13 11:48:00,54.1,30.3,30.59,NNE,24,1.0,4.0,40,0.00,,SKC,0.00,VWS V14.01,2013-11-13 17:48:00,
2013-11-13 11:50:00,53.7,30.6,30.59,NNE,22,0.0,7.0,41,0.00,,SKC,0.00,VWS V14.01,2013-11-13 17:50:00,
2013-11-13 11:53:00,54.6,30.8,30.58,NNE,17,0.0,6.0,40,0.00,,SKC,0.00,VWS V14.01,2013-11-13 17:53:00,
2013-11-13 11:58:00,55.1,30.6,30.58,NNE,17,0.0,3.0,39,0.00,,SKC,0.00,VWS V14.01,2013-11-13 17:58:00,
2013-11-13 12:00:00,54.8,31.0,30.58,NNE,17,0.0,6.0,40,0.00,,SKC,0.00,VWS V14.01,2013-11-13 18:00:00,
2013-11-13 12:03:00,55.5,31.0,30.58,NNE,17,0.0,3.0,39,0.00,,SKC,0.00,VWS V14.01,2013-11-13 18:03:00,
2013-11-13 12:08:00,55.9,30.7,30.57,NNE,16,0.0,7.0,38,0.00,,SKC,0.00,VWS V14.01,2013-11-13 18:08:00,
2013-11-13 12:10:00,55.6,31.7,30.58,NNE,17,0.0,3.0,40,0.00,,SKC,0.00,VWS V14.01,2013-11-13 18:10:00,
2013-11-13 12:13:00,56.0,30.8,30.57,NNE,19,0.0,7.0,38,0.00,,SKC,0.00,VWS V14.01,2013-11-13 18:13:00,
2013-11-13 12:18:00,56.2,31.6,30.56,NNE,19,0.0,3.0,39,0.00,,SKC,0.00,VWS V14.01,2013-11-13 18:18:00,
2013-11-13 12:20:00,56.1,30.9,30.57,NNE,19,0.0,7.0,38,0.00,,SKC,0.00,VWS V14.01,2013-11-13 18:20:00,
2013-11-13 12:23:00,56.5,31.2,30.56,NNE,29,0.0,7.0,38,0.00,,SKC,0.00,VWS V14.01,2013-11-13 18:23:00,
2013-11-13 12:28:00,56.8,31.5,30.55,NNE,26,0.0,4.0,38,0.00,,SKC,0.00,VWS V14.01,2013-11-13 18:28:00,
2013-11-13 12:30:00,56.5,31.2,30.56,NNE,29,0.0,7.0,38,0.00,,SKC,0.00,VWS V14.01,2013-11-13 18:30:00,
2013-11-13 12:33:00,57.2,31.2,30.54,NNE,26,2.0,4.0,37,0.00,,SKC,0.00,VWS V14.01,2013-11-13 18:33:00,
2013-11-13 12:38:00,57.4,31.4,30.54,NNE,26,0.0,4.0,37,0.00,,SKC,0.00,VWS V14.01,2013-11-13 18:38:00,
2013-11-13 12:40:00,57.2,31.8,30.55,NNE,25,0.0,5.0,38,0.00,,SKC,0.00,VWS V14.01,2013-11-13 18:40:00,
2013-11-13 12:43:00,57.6,30.9,30.54,NNE,14,0.0,7.0,36,0.00,,SKC,0.00,VWS V14.01,2013-11-13 18:43:00,
2013-11-13 12:48:00,57.9,30.4,30.53,NNE,13,0.0,5.0,35,0.00,,SKC,0.00,VWS V14.01,2013-11-13 18:48:00,
2013-11-13 12:50:00,57.7,30.3,30.54,NNE,13,4.0,7.0,35,0.00,,SKC,0.00,VWS V14.01,2013-11-13 18:50:00,
2013-11-13 12:53:00,57.9,31.8,30.53,NNE,13,0.0,5.0,37,0.00,,SKC,0.00,VWS V14.01,2013-11-13 18:53:00,
2013-11-13 12:58:00,58.1,31.3,30.53,NNE,14,4.0,5.0,36,0.00,,SKC,0.00,VWS V14.01,2013-11-13 18:58:00,
2013-11-13 13:00:00,58.0,31.2,30.52,NNE,13,0.0,5.0,36,0.00,,SKC,0.00,VWS V14.01,2013-11-13 19:00:00,
2013-11-13 13:03:00,58.0,31.2,30.52,NNE,17,5.0,5.0,36,0.00,,SKC,0.00,VWS V14.01,2013-11-13 19:03:00,
2013-11-13 13:08:00,58.1,30.6,30.52,NNE,15,0.0,5.0,35,0.00,,SKC,0.00,VWS V14.01,2013-11-13 19:08:00,
2013-11-13 13:10:00,57.9,31.1,30.52,NNE,17,0.0,5.0,36,0.00,,SKC,0.00,VWS V14.01,2013-11-13 19:10:00,
2013-11-13 13:13:00,58.3,29.3,30.52,North,355,6.0,8.0,33,0.00,,SKC,0.00,VWS V14.01,2013-11-13 19:13:00,
2013-11-13 13:18:00,58.5,28.0,30.51,North,355,0.0,8.0,31,0.00,,SKC,0.00,VWS V14.01,2013-11-13 19:18:00,
2013-11-13 13:20:00,58.4,30.2,30.52,North,355,1.0,8.0,34,0.00,,SKC,0.00,VWS V14.01,2013-11-13 19:20:00,
2013-11-13 13:23:00,58.6,31.0,30.51,North,355,0.0,8.0,35,0.00,,SKC,0.00,VWS V14.01,2013-11-13 19:23:00,
2013-11-13 13:28:00,58.8,29.8,30.51,NNE,22,3.0,7.0,33,0.00,,SKC,0.00,VWS V14.01,2013-11-13 19:28:00,
2013-11-13 13:30:00,58.7,30.4,30.51,NNE,12,3.0,8.0,34,0.00,,SKC,0.00,VWS V14.01,2013-11-13 19:30:00,
2013-11-13 13:33:00,58.7,29.7,30.50,NNE,21,0.0,7.0,33,0.00,,SKC,0.00,VWS V14.01,2013-11-13 19:33:00,
2013-11-13 13:38:00,58.7,28.9,30.50,NNE,28,2.0,6.0,32,0.00,,SKC,0.00,VWS V14.01,2013-11-13 19:38:00,
2013-11-13 13:40:00,58.7,29.7,30.50,NNE,21,0.0,7.0,33,0.00,,SKC,0.00,VWS V14.01,2013-11-13 19:40:00,
2013-11-13 13:43:00,58.7,28.9,30.50,NNE,28,0.0,6.0,32,0.00,,SKC,0.00,VWS V14.01,2013-11-13 19:43:00,
2013-11-13 13:48:00,58.7,28.9,30.50,NNE,30,1.0,8.0,32,0.00,,SKC,0.00,VWS V14.01,2013-11-13 19:48:00,
2013-11-13 13:50:00,58.7,29.7,30.50,NNE,28,3.0,6.0,33,0.00,,SKC,0.00,VWS V14.01,2013-11-13 19:50:00,
2013-11-13 13:53:00,58.8,29.0,30.49,NNE,30,1.0,8.0,32,0.00,,SKC,0.00,VWS V14.01,2013-11-13 19:53:00,
2013-11-13 13:58:00,59.1,29.3,30.48,NNE,27,0.0,7.0,32,0.00,,SKC,0.00,VWS V14.01,2013-11-13 19:58:00,
2013-11-13 14:00:00,58.9,29.9,30.49,NNE,28,4.0,8.0,33,0.00,,SKC,0.00,VWS V14.01,2013-11-13 20:00:00,
2013-11-13 14:03:00,59.3,28.7,30.48,NNE,28,1.0,7.0,31,0.00,,SKC,0.00,VWS V14.01,2013-11-13 20:03:00,
2013-11-13 14:08:00,59.5,28.9,30.48,NNE,27,2.0,4.0,31,0.00,,SKC,0.00,VWS V14.01,2013-11-13 20:08:00,
2013-11-13 14:10:00,59.3,27.9,30.48,NNE,28,1.0,7.0,30,0.00,,SKC,0.00,VWS V14.01,2013-11-13 20:10:00,
2013-11-13 14:13:00,59.7,29.0,30.48,NNE,30,1.0,6.0,31,0.00,,SKC,0.00,VWS V14.01,2013-11-13 20:13:00,
2013-11-13 14:18:00,59.6,28.1,30.48,NNE,32,0.0,3.0,30,0.00,,SKC,0.00,VWS V14.01,2013-11-13 20:18:00,
2013-11-13 14:20:00,59.6,29.7,30.48,NNE,31,0.0,6.0,32,0.00,,SKC,0.00,VWS V14.01,2013-11-13 20:20:00,
2013-11-13 14:23:00,59.3,28.7,30.48,NE,34,1.0,6.0,31,0.00,,SKC,0.00,VWS V14.01,2013-11-13 20:23:00,
2013-11-13 14:28:00,59.2,28.6,30.47,NE,37,0.0,5.0,31,0.00,,SKC,0.00,VWS V14.01,2013-11-13 20:28:00,
2013-11-13 14:30:00,59.2,28.6,30.48,NE,37,0.0,6.0,31,0.00,,SKC,0.00,VWS V14.01,2013-11-13 20:30:00,
2013-11-13 14:33:00,59.3,28.7,30.47,NE,37,0.0,5.0,31,0.00,,SKC,0.00,VWS V14.01,2013-11-13 20:33:00,
2013-11-13 14:38:00,59.6,29.0,30.47,NE,37,2.0,5.0,31,0.00,,SKC,0.00,VWS V14.01,2013-11-13 20:38:00,
2013-11-13 14:40:00,59.4,30.3,30.47,NE,37,5.0,5.0,33,0.00,,SKC,0.00,VWS V14.01,2013-11-13 20:40:00,
2013-11-13 14:43:00,60.0,30.8,30.47,NE,37,0.0,6.0,33,0.00,,SKC,0.00,VWS V14.01,2013-11-13 20:43:00,
2013-11-13 14:48:00,59.9,30.0,30.46,NE,37,0.0,5.0,32,0.00,,SKC,0.00,VWS V14.01,2013-11-13 20:48:00,
2013-11-13 14:50:00,60.0,30.1,30.47,NE,37,2.0,6.0,32,0.00,,SKC,0.00,VWS V14.01,2013-11-13 20:50:00,
2013-11-13 14:53:00,60.1,29.4,30.47,NE,37,1.0,5.0,31,0.00,,SKC,0.00,VWS V14.01,2013-11-13 20:53:00,
2013-11-13 14:58:00,60.3,28.8,30.46,NE,36,4.0,4.0,30,0.00,,SKC,0.00,VWS V14.01,2013-11-13 20:58:00,
2013-11-13 15:00:00,60.2,28.7,30.46,NE,36,0.0,5.0,30,0.00,,SKC,0.00,VWS V14.01,2013-11-13 21:00:00,
2013-11-13 15:03:00,60.4,28.9,30.46,NE,36,0.0,4.0,30,0.00,,SKC,0.00,VWS V14.01,2013-11-13 21:03:00,
2013-11-13 15:08:00,60.3,27.9,30.46,NE,35,0.0,5.0,29,0.00,,SKC,0.00,VWS V14.01,2013-11-13 21:08:00,
2013-11-13 15:10:00,60.4,28.0,30.46,NE,36,2.0,4.0,29,0.00,,SKC,0.00,VWS V14.01,2013-11-13 21:10:00,
2013-11-13 15:13:00,60.2,27.0,30.46,NE,35,2.0,5.0,28,0.00,,SKC,0.00,VWS V14.01,2013-11-13 21:13:00,
2013-11-13 15:18:00,60.3,26.2,30.46,NE,35,0.0,0.0,27,0.00,,SKC,0.00,VWS V14.01,2013-11-13 21:18:00,
2013-11-13 15:20:00,60.2,27.9,30.46,NE,35,0.0,5.0,29,0.00,,SKC,0.00,VWS V14.01,2013-11-13 21:20:00,
2013-11-13 15:23:00,60.4,29.6,30.46,NE,35,0.0,3.0,31,0.00,,SKC,0.00,VWS V14.01,2013-11-13 21:23:00,
2013-11-13 15:28:00,60.2,29.5,30.46,NE,35,0.0,5.0,31,0.00,,SKC,0.00,VWS V14.01,2013-11-13 21:28:00,
2013-11-13 15:30:00,60.3,28.8,30.46,NE,35,0.0,3.0,30,0.00,,SKC,0.00,VWS V14.01,2013-11-13 21:30:00,
2013-11-13 15:33:00,60.0,28.5,30.46,NE,35,1.0,5.0,30,0.00,,SKC,0.00,VWS V14.01,2013-11-13 21:33:00,
2013-11-13 15:38:00,59.7,28.2,30.46,NE,36,1.0,1.0,30,0.00,,SKC,0.00,VWS V14.01,2013-11-13 21:38:00,
2013-11-13 15:40:00,59.9,28.4,30.46,NE,36,0.0,5.0,30,0.00,,SKC,0.00,VWS V14.01,2013-11-13 21:40:00,
2013-11-13 15:43:00,59.8,29.1,30.46,NE,36,1.0,2.0,31,0.00,,SKC,0.00,VWS V14.01,2013-11-13 21:43:00,
2013-11-13 15:48:00,59.9,29.2,30.46,NE,36,0.0,2.0,31,0.00,,SKC,0.00,VWS V14.01,2013-11-13 21:48:00,
2013-11-13 15:50:00,59.8,29.1,30.46,NE,36,0.0,4.0,31,0.00,,SKC,0.00,VWS V14.01,2013-11-13 21:50:00,
2013-11-13 15:53:00,59.8,28.3,30.46,NE,36,0.0,2.0,30,0.00,,SKC,0.00,VWS V14.01,2013-11-13 21:53:00,
2013-11-13 15:58:00,59.6,28.1,30.45,NE,36,0.0,2.0,30,0.00,,SKC,0.00,VWS V14.01,2013-11-13 21:58:00,
2013-11-13 16:00:00,59.8,28.3,30.46,NE,36,0.0,2.0,30,0.00,,SKC,0.00,VWS V14.01,2013-11-13 22:00:00,
2013-11-13 16:03:00,59.4,28.0,30.45,NE,37,2.0,3.0,30,0.00,,SKC,0.00,VWS V14.01,2013-11-13 22:03:00,
2013-11-13 16:08:00,59.2,28.6,30.45,NE,37,0.0,5.0,31,0.00,,SKC,0.00,VWS V14.01,2013-11-13 22:08:00,
2013-11-13 16:10:00,59.3,27.9,30.45,NE,37,0.0,4.0,30,0.00,,SKC,0.00,VWS V14.01,2013-11-13 22:10:00,
2013-11-13 16:13:00,58.9,27.5,30.45,NE,37,0.0,5.0,30,0.00,,SKC,0.00,VWS V14.01,2013-11-13 22:13:00,
2013-11-13 16:18:00,58.7,28.2,30.45,NE,37,0.0,1.0,31,0.00,,SKC,0.00,VWS V14.01,2013-11-13 22:18:00,
2013-11-13 16:20:00,58.8,29.0,30.45,NE,37,1.0,5.0,32,0.00,,SKC,0.00,VWS V14.01,2013-11-13 22:20:00,
2013-11-13 16:23:00,58.7,28.2,30.44,NE,37,0.0,1.0,31,0.00,,SKC,0.00,VWS V14.01,2013-11-13 22:23:00,
2013-11-13 16:28:00,58.4,28.7,30.44,NE,38,0.0,5.0,32,0.00,,SKC,0.00,VWS V14.01,2013-11-13 22:28:00,
2013-11-13 16:30:00,58.6,28.1,30.44,NE,37,0.0,2.0,31,0.00,,SKC,0.00,VWS V14.01,2013-11-13 22:30:00,
2013-11-13 16:33:00,58.2,28.5,30.44,NE,38,0.0,5.0,32,0.00,,SKC,0.00,VWS V14.01,2013-11-13 22:33:00,
2013-11-13 16:38:00,58.1,27.6,30.45,NE,38,0.0,4.0,31,0.00,,SKC,0.00,VWS V14.01,2013-11-13 22:38:00,
2013-11-13 16:40:00,58.2,28.5,30.44,NE,38,0.0,5.0,32,0.00,,SKC,0.00,VWS V14.01,2013-11-13 22:40:00,
2013-11-13 16:43:00,57.8,28.2,30.45,NE,38,0.0,4.0,32,0.00,,SKC,0.00,VWS V14.01,2013-11-13 22:43:00,
2013-11-13 16:48:00,57.3,28.5,30.45,NE,38,0.0,1.0,33,0.00,,SKC,0.00,VWS V14.01,2013-11-13 22:48:00,
2013-11-13 16:50:00,57.6,27.2,30.45,NE,38,0.0,4.0,31,0.00,,SKC,0.00,VWS V14.01,2013-11-13 22:50:00,
2013-11-13 16:53:00,57.1,27.5,30.45,NE,38,0.0,2.0,32,0.00,,SKC,0.00,VWS V14.01,2013-11-13 22:53:00,
2013-11-13 16:58:00,56.8,28.0,30.45,NE,38,2.0,2.0,33,0.00,,SKC,0.00,VWS V14.01,2013-11-13 22:58:00,
2013-11-13 17:00:00,57.0,28.2,30.45,NE,38,1.0,3.0,33,0.00,,SKC,0.00,VWS V14.01,2013-11-13 23:00:00,
2013-11-13 17:03:00,56.6,28.6,30.44,NE,38,0.0,2.0,34,0.00,,SKC,0.00,VWS V14.01,2013-11-13 23:03:00,
2013-11-13 17:08:00,56.4,27.7,30.45,NE,38,0.0,2.0,33,0.00,,SKC,0.00,VWS V14.01,2013-11-13 23:08:00,
2013-11-13 17:10:00,56.5,27.8,30.44,NE,38,0.0,2.0,33,0.00,,SKC,0.00,VWS V14.01,2013-11-13 23:10:00,
2013-11-13 17:13:00,56.1,28.1,30.44,NE,38,0.0,2.0,34,0.00,,SKC,0.00,VWS V14.01,2013-11-13 23:13:00,
2013-11-13 17:18:00,55.7,27.8,30.44,NE,38,0.0,2.0,34,0.00,,SKC,0.00,VWS V14.01,2013-11-13 23:18:00,
2013-11-13 17:20:00,56.0,28.0,30.44,NE,38,0.0,2.0,34,0.00,,SKC,0.00,VWS V14.01,2013-11-13 23:20:00,
2013-11-13 17:23:00,55.3,28.1,30.44,NE,38,0.0,2.0,35,0.00,,SKC,0.00,VWS V14.01,2013-11-13 23:23:00,
2013-11-13 17:28:00,54.7,28.3,30.43,NE,38,0.0,0.0,36,0.00,,SKC,0.00,VWS V14.01,2013-11-13 23:28:00,
2013-11-13 17:30:00,55.0,27.9,30.43,NE,38,0.0,2.0,35,0.00,,SKC,0.00,VWS V14.01,2013-11-13 23:30:00,
2013-11-13 17:33:00,54.1,27.8,30.43,NE,38,0.0,0.0,36,0.00,,SKC,0.00,VWS V14.01,2013-11-13 23:33:00,
2013-11-13 17:38:00,53.3,27.7,30.43,NE,38,0.0,0.0,37,0.00,,SKC,0.00,VWS V14.01,2013-11-13 23:38:00,
2013-11-13 17:40:00,53.8,27.5,30.43,NE,38,0.0,0.0,36,0.00,,SKC,0.00,VWS V14.01,2013-11-13 23:40:00,
2013-11-13 17:43:00,52.6,27.7,30.43,NE,38,0.0,0.0,38,0.00,,SKC,0.00,VWS V14.01,2013-11-13 23:43:00,
2013-11-13 17:48:00,51.9,27.7,30.43,NE,38,0.0,0.0,39,0.00,,SKC,0.00,VWS V14.01,2013-11-13 23:48:00,
2013-11-13 17:50:00,52.3,28.1,30.43,NE,38,0.0,0.0,39,0.00,,SKC,0.00,VWS V14.01,2013-11-13 23:50:00,
2013-11-13 17:53:00,51.3,27.8,30.43,NE,38,0.0,0.0,40,0.00,,SKC,0.00,VWS V14.01,2013-11-13 23:53:00,
2013-11-13 17:58:00,50.7,27.9,30.43,NE,38,0.0,0.0,41,0.00,,SKC,0.00,VWS V14.01,2013-11-13 23:58:00,
2013-11-13 18:00:00,51.0,28.1,30.43,NE,38,0.0,0.0,41,0.00,,SKC,0.00,VWS V14.01,2013-11-14 00:00:00,
2013-11-13 18:03:00,50.1,27.9,30.43,NE,38,0.0,0.0,42,0.00,,SKC,0.00,VWS V14.01,2013-11-14 00:03:00,
2013-11-13 18:08:00,49.4,27.3,30.43,NE,38,0.0,0.0,42,0.00,,SKC,0.00,VWS V14.01,2013-11-14 00:08:00,
2013-11-13 18:10:00,49.7,27.6,30.43,NE,38,0.0,0.0,42,0.00,,SKC,0.00,VWS V14.01,2013-11-14 00:10:00,
2013-11-13 18:13:00,48.9,27.4,30.43,NE,38,0.0,0.0,43,0.00,,SKC,0.00,VWS V14.01,2013-11-14 00:13:00,
2013-11-13 18:18:00,48.3,27.4,30.43,NE,38,0.0,0.0,44,0.00,,SKC,0.00,VWS V14.01,2013-11-14 00:18:00,
2013-11-13 18:20:00,48.6,27.1,30.43,NE,38,0.0,0.0,43,0.00,,SKC,0.00,VWS V14.01,2013-11-14 00:20:00,
2013-11-13 18:23:00,47.8,27.5,30.43,NE,38,0.0,0.0,45,0.00,,SKC,0.00,VWS V14.01,2013-11-14 00:23:00,
2013-11-13 18:28:00,47.3,27.6,30.43,NE,38,0.0,0.0,46,0.00,,SKC,0.00,VWS V14.01,2013-11-14 00:28:00,
2013-11-13 18:30:00,47.5,27.2,30.43,NE,38,0.0,0.0,45,0.00,,SKC,0.00,VWS V14.01,2013-11-14 00:30:00,
2013-11-13 18:33:00,46.8,27.6,30.44,NE,38,0.0,0.0,47,0.00,,SKC,0.00,VWS V14.01,2013-11-14 00:33:00,
2013-11-13 18:38:00,46.4,27.3,30.43,NE,38,0.0,0.0,47,0.00,,SKC,0.00,VWS V14.01,2013-11-14 00:38:00,
2013-11-13 18:40:00,46.7,27.6,30.43,NE,38,0.0,0.0,47,0.00,,SKC,0.00,VWS V14.01,2013-11-14 00:40:00,
2013-11-13 18:43:00,46.0,27.4,30.44,NE,38,0.0,0.0,48,0.00,,SKC,0.00,VWS V14.01,2013-11-14 00:43:00,
2013-11-13 18:48:00,45.7,27.6,30.44,NE,38,0.0,0.0,49,0.00,,SKC,0.00,VWS V14.01,2013-11-14 00:48:00,
2013-11-13 18:50:00,45.8,27.2,30.44,NE,38,0.0,0.0,48,0.00,,SKC,0.00,VWS V14.01,2013-11-14 00:50:00,
2013-11-13 18:53:00,45.3,27.3,30.44,NE,38,0.0,0.0,49,0.00,,SKC,0.00,VWS V14.01,2013-11-14 00:53:00,
2013-11-13 18:58:00,45.0,27.5,30.44,NE,38,0.0,0.0,50,0.00,,SKC,0.00,VWS V14.01,2013-11-14 00:58:00,
2013-11-13 19:00:00,45.2,27.2,30.44,NE,38,0.0,0.0,49,0.00,,SKC,0.00,VWS V14.01,2013-11-14 01:00:00,
2013-11-13 19:03:00,44.7,27.2,30.44,NE,38,0.0,0.0,50,0.00,,SKC,0.00,VWS V14.01,2013-11-14 01:03:00,
2013-11-13 19:08:00,44.4,27.4,30.44,NE,38,0.0,0.0,51,0.00,,SKC,0.00,VWS V14.01,2013-11-14 01:08:00,
2013-11-13 19:10:00,44.6,27.6,30.44,NE,38,0.0,0.0,51,0.00,,SKC,0.00,VWS V14.01,2013-11-14 01:10:00,
2013-11-13 19:13:00,44.2,27.2,30.44,NE,38,0.0,0.0,51,0.00,,SKC,0.00,VWS V14.01,2013-11-14 01:13:00,
2013-11-13 19:18:00,44.0,27.5,30.44,NE,38,0.0,0.0,52,0.00,,SKC,0.00,VWS V14.01,2013-11-14 01:18:00,
2013-11-13 19:20:00,44.0,27.0,30.44,NE,38,0.0,0.0,51,0.00,,SKC,0.00,VWS V14.01,2013-11-14 01:20:00,
2013-11-13 19:23:00,43.7,27.2,30.44,NE,38,0.0,0.0,52,0.00,,SKC,0.00,VWS V14.01,2013-11-14 01:23:00,
2013-11-13 19:28:00,43.5,27.5,30.44,NE,38,0.0,0.0,53,0.00,,SKC,0.00,VWS V14.01,2013-11-14 01:28:00,
2013-11-13 19:30:00,43.6,27.1,30.44,NE,38,0.0,0.0,52,0.00,,SKC,0.00,VWS V14.01,2013-11-14 01:30:00,
2013-11-13 19:33:00,43.3,27.3,30.44,NE,38,0.0,0.0,53,0.00,,SKC,0.00,VWS V14.01,2013-11-14 01:33:00,
2013-11-13 19:37:00,43.1,27.1,30.44,NE,38,0.0,0.0,53,0.00,,SKC,0.00,VWS V14.01,2013-11-14 01:37:00,
2013-11-13 19:40:00,43.2,27.2,30.44,NE,38,0.0,0.0,53,0.00,,SKC,0.00,VWS V14.01,2013-11-14 01:40:00,
2013-11-13 19:42:00,43.1,27.1,30.44,NE,38,0.0,0.0,53,0.00,,SKC,0.00,VWS V14.01,2013-11-14 01:42:00,
2013-11-13 19:47:00,43.1,27.1,30.44,NE,38,0.0,0.0,53,0.00,,SKC,0.00,VWS V14.01,2013-11-14 01:47:00,
2013-11-13 19:50:00,43.1,27.1,30.44,NE,38,0.0,0.0,53,0.00,,SKC,0.00,VWS V14.01,2013-11-14 01:50:00,
2013-11-13 19:52:00,43.0,27.5,30.44,NE,38,0.0,0.0,54,0.00,,SKC,0.00,VWS V14.01,2013-11-14 01:52:00,
2013-11-13 19:57:00,42.8,27.3,30.44,NE,38,0.0,0.0,54,0.00,,SKC,0.00,VWS V14.01,2013-11-14 01:57:00,
2013-11-13 20:00:00,42.9,27.4,30.44,NE,38,0.0,0.0,54,0.00,,SKC,0.00,VWS V14.01,2013-11-14 02:00:00,
2013-11-13 20:02:00,42.7,27.7,30.43,NE,38,0.0,0.0,55,0.00,,SKC,0.00,VWS V14.01,2013-11-14 02:02:00,
2013-11-13 20:07:00,42.5,27.5,30.43,NE,38,0.0,0.0,55,0.00,,SKC,0.00,VWS V14.01,2013-11-14 02:07:00,
2013-11-13 20:10:00,42.6,27.6,30.43,NE,38,0.0,0.0,55,0.00,,SKC,0.00,VWS V14.01,2013-11-14 02:10:00,
2013-11-13 20:12:00,42.3,27.3,30.43,NE,38,0.0,0.0,55,0.00,,SKC,0.00,VWS V14.01,2013-11-14 02:12:00,
2013-11-13 20:17:00,42.2,27.2,30.44,NE,38,0.0,0.0,55,0.00,,SKC,0.00,VWS V14.01,2013-11-14 02:17:00,
2013-11-13 20:20:00,42.3,27.3,30.44,NE,38,0.0,0.0,55,0.00,,SKC,0.00,VWS V14.01,2013-11-14 02:20:00,
2013-11-13 20:22:00,42.0,27.5,30.44,NE,38,0.0,0.0,56,0.00,,SKC,0.00,VWS V14.01,2013-11-14 02:22:00,
2013-11-13 20:27:00,41.9,27.8,30.44,NE,38,0.0,0.0,57,0.00,,SKC,0.00,VWS V14.01,2013-11-14 02:27:00,
2013-11-13 20:30:00,42.0,27.5,30.44,NE,38,0.0,0.0,56,0.00,,SKC,0.00,VWS V14.01,2013-11-14 02:30:00,
2013-11-13 20:32:00,41.8,27.7,30.44,NE,38,0.0,0.0,57,0.00,,SKC,0.00,VWS V14.01,2013-11-14 02:32:00,
2013-11-13 20:37:00,41.6,27.9,30.44,NE,38,0.0,0.0,58,0.00,,SKC,0.00,VWS V14.01,2013-11-14 02:37:00,
2013-11-13 20:40:00,41.7,27.6,30.44,NE,38,0.0,0.0,57,0.00,,SKC,0.00,VWS V14.01,2013-11-14 02:40:00,
2013-11-13 20:42:00,41.5,27.8,30.44,NE,38,0.0,0.0,58,0.00,,SKC,0.00,VWS V14.01,2013-11-14 02:42:00,
2013-11-13 20:47:00,41.3,27.6,30.44,NE,38,0.0,0.0,58,0.00,,SKC,0.00,VWS V14.01,2013-11-14 02:47:00,
2013-11-13 20:50:00,41.4,27.8,30.44,NE,38,0.0,0.0,58,0.00,,SKC,0.00,VWS V14.01,2013-11-14 02:50:00,
2013-11-13 20:52:00,41.2,27.6,30.44,NE,38,0.0,0.0,58,0.00,,SKC,0.00,VWS V14.01,2013-11-14 02:52:00,
2013-11-13 20:57:00,41.1,27.5,30.43,NE,38,0.0,0.0,58,0.00,,SKC,0.00,VWS V14.01,2013-11-14 02:57:00,
2013-11-13 21:00:00,41.2,27.6,30.44,NE,38,0.0,0.0,58,0.00,,SKC,0.00,VWS V14.01,2013-11-14 03:00:00,
2013-11-13 21:02:00,41.1,27.5,30.43,NE,38,0.0,0.0,58,0.00,,SKC,0.00,VWS V14.01,2013-11-14 03:02:00,
2013-11-13 21:07:00,41.1,27.5,30.43,NE,38,0.0,0.0,58,0.00,,SKC,0.00,VWS V14.01,2013-11-14 03:07:00,
2013-11-13 21:10:00,41.1,27.5,30.43,NE,38,0.0,0.0,58,0.00,,SKC,0.00,VWS V14.01,2013-11-14 03:10:00,
2013-11-13 21:12:00,41.0,27.4,30.43,NE,38,0.0,0.0,58,0.00,,SKC,0.00,VWS V14.01,2013-11-14 03:12:00,
2013-11-13 21:17:00,40.9,27.3,30.43,NE,38,0.0,0.0,58,0.00,,SKC,0.00,VWS V14.01,2013-11-14 03:17:00,
2013-11-13 21:20:00,40.9,27.3,30.43,NE,38,0.0,0.0,58,0.00,,SKC,0.00,VWS V14.01,2013-11-14 03:20:00,
2013-11-13 21:22:00,40.8,27.2,30.44,NE,38,0.0,0.0,58,0.00,,SKC,0.00,VWS V14.01,2013-11-14 03:22:00,
2013-11-13 21:27:00,40.7,27.1,30.43,NE,38,0.0,0.0,58,0.00,,SKC,0.00,VWS V14.01,2013-11-14 03:27:00,
2013-11-13 21:30:00,40.7,27.1,30.43,NE,38,0.0,0.0,58,0.00,,SKC,0.00,VWS V14.01,2013-11-14 03:30:00,
2013-11-13 21:32:00,40.7,27.1,30.43,NE,38,0.0,0.0,58,0.00,,SKC,0.00,VWS V14.01,2013-11-14 03:32:00,
2013-11-13 21:37:00,40.6,27.0,30.43,NE,38,0.0,0.0,58,0.00,,SKC,0.00,VWS V14.01,2013-11-14 03:37:00,
2013-11-13 21:40:00,40.6,27.0,30.43,NE,38,0.0,0.0,58,0.00,,SKC,0.00,VWS V14.01,2013-11-14 03:40:00,
2013-11-13 21:42:00,40.5,26.9,30.43,NE,38,0.0,0.0,58,0.00,,SKC,0.00,VWS V14.01,2013-11-14 03:42:00,
2013-11-13 21:47:00,40.4,26.8,30.44,NE,38,0.0,0.0,58,0.00,,SKC,0.00,VWS V14.01,2013-11-14 03:47:00,
2013-11-13 21:50:00,40.5,26.9,30.43,NE,38,0.0,0.0,58,0.00,,SKC,0.00,VWS V14.01,2013-11-14 03:50:00,
2013-11-13 21:52:00,40.2,27.0,30.44,NE,38,0.0,0.0,59,0.00,,SKC,0.00,VWS V14.01,2013-11-14 03:52:00,
2013-11-13 21:57:00,40.1,26.9,30.43,NE,38,0.0,0.0,59,0.00,,SKC,0.00,VWS V14.01,2013-11-14 03:57:00,
2013-11-13 22:00:00,40.2,27.0,30.44,NE,38,0.0,0.0,59,0.00,,SKC,0.00,VWS V14.01,2013-11-14 04:00:00,
2013-11-13 22:02:00,39.9,26.8,30.43,NE,38,0.0,0.0,59,0.00,,SKC,0.00,VWS V14.01,2013-11-14 04:02:00,
2013-11-13 22:07:00,39.7,27.0,30.43,NE,38,0.0,0.0,60,0.00,,SKC,0.00,VWS V14.01,2013-11-14 04:07:00,
2013-11-13 22:10:00,39.8,27.1,30.43,NE,38,0.0,0.0,60,0.00,,SKC,0.00,VWS V14.01,2013-11-14 04:10:00,
2013-11-13 22:12:00,39.5,26.8,30.43,NE,38,0.0,0.0,60,0.00,,SKC,0.00,VWS V14.01,2013-11-14 04:12:00,
2013-11-13 22:17:00,39.3,27.0,30.43,NE,38,0.0,0.0,61,0.00,,SKC,0.00,VWS V14.01,2013-11-14 04:17:00,
2013-11-13 22:20:00,39.4,26.7,30.43,NE,38,0.0,0.0,60,0.00,,SKC,0.00,VWS V14.01,2013-11-14 04:20:00,
2013-11-13 22:22:00,39.1,26.8,30.43,NE,38,0.0,0.0,61,0.00,,SKC,0.00,VWS V14.01,2013-11-14 04:22:00,
2013-11-13 22:27:00,38.9,26.6,30.43,NE,38,0.0,0.0,61,0.00,,SKC,0.00,VWS V14.01,2013-11-14 04:27:00,
2013-11-13 22:30:00,39.0,26.7,30.43,NE,38,0.0,0.0,61,0.00,,SKC,0.00,VWS V14.01,2013-11-14 04:30:00,
2013-11-13 22:32:00,38.8,26.5,30.43,NE,38,0.0,0.0,61,0.00,,SKC,0.00,VWS V14.01,2013-11-14 04:32:00,
2013-11-13 22:37:00,38.6,26.7,30.43,NE,38,0.0,0.0,62,0.00,,SKC,0.00,VWS V14.01,2013-11-14 04:37:00,
2013-11-13 22:40:00,38.7,26.8,30.43,NE,38,0.0,0.0,62,0.00,,SKC,0.00,VWS V14.01,2013-11-14 04:40:00,
2013-11-13 22:42:00,38.4,26.5,30.43,NE,38,0.0,0.0,62,0.00,,SKC,0.00,VWS V14.01,2013-11-14 04:42:00,
2013-11-13 22:47:00,38.2,26.3,30.43,NE,38,0.0,0.0,62,0.00,,SKC,0.00,VWS V14.01,2013-11-14 04:47:00,
2013-11-13 22:50:00,38.3,26.4,30.43,NE,38,0.0,0.0,62,0.00,,SKC,0.00,VWS V14.01,2013-11-14 04:50:00,
2013-11-13 22:52:00,38.1,26.6,30.43,NE,38,0.0,0.0,63,0.00,,SKC,0.00,VWS V14.01,2013-11-14 04:52:00,
2013-11-13 22:57:00,37.9,26.5,30.43,NE,38,0.0,0.0,63,0.00,,SKC,0.00,VWS V14.01,2013-11-14 04:57:00,
2013-11-13 23:00:00,38.0,26.5,30.43,NE,38,0.0,0.0,63,0.00,,SKC,0.00,VWS V14.01,2013-11-14 05:00:00,
2013-11-13 23:01:00,37.9,26.5,30.43,NE,38,0.0,0.0,63,0.00,,SKC,0.00,VWS V14.01,2013-11-14 05:01:00,
2013-11-13 23:06:00,37.7,26.6,30.42,NE,38,0.0,0.0,64,0.00,,SKC,0.00,VWS V14.01,2013-11-14 05:06:00,
2013-11-13 23:10:00,37.7,26.2,30.42,NE,38,0.0,0.0,63,0.00,,SKC,0.00,VWS V14.01,2013-11-14 05:10:00,
2013-11-13 23:11:00,37.5,26.1,30.42,NE,38,0.0,0.0,63,0.00,,SKC,0.00,VWS V14.01,2013-11-14 05:11:00,
2013-11-13 23:16:00,37.4,26.7,30.42,NE,38,0.0,0.0,65,0.00,,SKC,0.00,VWS V14.01,2013-11-14 05:16:00,
2013-11-13 23:20:00,37.4,26.7,30.42,NE,38,0.0,0.0,65,0.00,,SKC,0.00,VWS V14.01,2013-11-14 05:20:00,
2013-11-13 23:21:00,37.4,27.1,30.42,NE,38,0.0,0.0,66,0.00,,SKC,0.00,VWS V14.01,2013-11-14 05:21:00,
2013-11-13 23:26:00,37.4,27.1,30.42,NE,38,0.0,0.0,66,0.00,,SKC,0.00,VWS V14.01,2013-11-14 05:26:00,
2013-11-13 23:30:00,37.3,27.0,30.42,NE,38,0.0,0.0,66,0.00,,SKC,0.00,VWS V14.01,2013-11-14 05:30:00,
2013-11-13 23:31:00,37.3,27.0,30.42,NE,38,0.0,0.0,66,0.00,,SKC,0.00,VWS V14.01,2013-11-14 05:31:00,
2013-11-13 23:36:00,37.0,27.1,30.41,NE,38,0.0,0.0,67,0.00,,SKC,0.00,VWS V14.01,2013-11-14 05:36:00,
2013-11-13 23:40:00,37.0,27.1,30.41,NE,38,0.0,0.0,67,0.00,,SKC,0.00,VWS V14.01,2013-11-14 05:40:00,
2013-11-13 23:41:00,36.9,27.0,30.41,NE,38,0.0,0.0,67,0.00,,SKC,0.00,VWS V14.01,2013-11-14 05:41:00,
2013-11-13 23:46:00,36.7,27.1,30.41,NE,38,0.0,0.0,68,0.00,,SKC,0.00,VWS V14.01,2013-11-14 05:46:00,
2013-11-13 23:50:00,36.7,27.1,30.41,NE,38,0.0,0.0,68,0.00,,SKC,0.00,VWS V14.01,2013-11-14 05:50:00,
2013-11-13 23:51:00,36.6,27.4,30.41,NE,38,0.0,0.0,69,0.00,,SKC,0.00,VWS V14.01,2013-11-14 05:51:00,
2013-11-13 23:56:00,36.7,27.5,30.41,NE,38,0.0,0.0,69,0.00,,SKC,0.00,VWS V14.01,2013-11-14 05:56:00,